Location: Les Jeannots
(43.2262°N, 5.5774°E)
Time: 03:03:45
(UTC+00:00)

Cosmos 1980 - Pass Details

Date: 05 July 2020
Orbit: 839 x 847 km, 71.0° (Epoch: 04 August)

Event Time Altitude Azimuth Distance (km) Brightness Sun altitude
Exits shadow 21:56:47 35° 177° (S) 1,327 4.2 -19.8°
Maximum altitude 21:59:04 63° 110° (ESE) 936 3.7 -19.9°
Drops below altitude 10° 22:04:39 10° 31° (NNE) 2,464 6.6 -20.4°
Sets 22:07:07 0° 28° (NNE) 3,403 7.4 -20.6°
